This is the latest recevied weather packets stored in our database for station/object KQ4KX. If no packets are shown the sender has not sent any weather packets the latest 10 day(s).
| Time | Temp. | Humidity | Pressure | Rain* | Wind** | Luminosity | Snow |
|---|---|---|---|---|---|---|---|
| 1788457174 | 33.89° C | 74% | 1014.5 hPa | 0 mm | - | - | - |
| 1788456844 | 33.33° C | 71% | 1014.5 hPa | 0 mm | - | - | - |
| 1788456436 | 33.33° C | 74% | 1014.8 hPa | 0 mm | - | - | - |
| 1788456244 | 33.33° C | 74% | 1014.8 hPa | 0 mm | - | - | - |
| 1788455801 | 32.22° C | 75% | 1014.8 hPa | 0 mm | - | - | - |
| 1788455644 | 32.22° C | 75% | 1014.8 hPa | 0 mm | - | - | - |
| 1788455314 | 32.22° C | 73% | 1014.8 hPa | 0 mm | - | - | - |
| 1788453754 | 32.22° C | 75% | 1015.1 hPa | 0 mm | - | - | - |
| 1788453424 | 32.22° C | 77% | 1015.2 hPa | 0 mm | - | - | - |
| 1788452794 | 31.67° C | 77% | 1015.3 hPa | 0 mm | - | - | - |
| 1788452164 | 32.22° C | 76% | 1015.3 hPa | 0 mm | - | - | - |
| 1788452032 | 31.67° C | 78% | 1015.3 hPa | 0 mm | - | - | - |
| 1788451835 | 31.67° C | 78% | 1015.3 hPa | 0 mm | - | - | - |
| 1788450904 | 31.67° C | 77% | 1015.4 hPa | 0 mm | - | - | - |
| 1788450604 | 31.67° C | 79% | 1015.4 hPa | 0 mm | - | - | - |
| 1788450304 | 31.67° C | 76% | 1015.5 hPa | 0 mm | - | - | - |
| 1788450233 | 32.22° C | 79% | 1015.5 hPa | 0 mm | - | - | - |
| 1788449974 | 32.22° C | 79% | 1015.5 hPa | 0 mm | - | - | - |
| 1788449555 | 31.11° C | 80% | 1015.6 hPa | 0 mm | - | - | - |
| 1788449374 | 31.11° C | 80% | 1015.6 hPa | 0 mm | - | - | - |
| 1788449074 | 30.56° C | 84% | 1015.5 hPa | 0 mm | - | - | - |
| 1788448444 | 30.56° C | 81% | 1015.5 hPa | 0 mm | - | - | - |
| 1788448144 | 30.56° C | 81% | 1015.6 hPa | 0 mm | - | - | - |
| 1788447186 | 29.44° C | 86% | 1015.5 hPa | 0 mm | - | - | - |
| 1788446854 | 28.89° C | 86% | 1015.7 hPa | 0 mm | - | - | - |
* Rain latest hour (hover to see other rain measurements)
** Current wind speed in m/s (hover to see current wind gust speed)